Location: site
(53.0000°N, 23.0500°E)
Time: 22:15:45
(UTC+01:00)

SAOCOM 1-A - Pass Details

Date: 17 January 2020
Orbit: 621 x 623 km, 97.9° (Epoch: 24 February)

Event Time Altitude Azimuth Distance (km) Brightness Sun altitude
Exits shadow 17:14:23 14° 36° (NE) 1,780 ? -13.0°
Maximum altitude 17:17:40 32° 95° (E) 1,073 ? -13.5°
Drops below altitude 10° 17:21:34 10° 160° (SSE) 1,990 ? -14.1°
Sets 17:23:56 0° 170° (S) 2,891 ? -14.4°
